Date String (YYYY-MM-DD hh:mm:ss) UTC,Instrument flags,absolute air pressure of the measurement (hPa),sample flow rate (lpm),inlet stack bypass flow (lpm),air temperature of the measurement (°C),ambient temperature measured by the external sensor (°C),aerosol sample conditioner tube jacket temperature (°C),OPC LED temperature (°C),internal box temperature (°C),relative humidity of the measurement (%),span deviation,mass concentration of particles derived from Lorenz-Mie calculation of OPC scattering (μg/m³),mass concentration of particles derived from Lorenz-Mie calculation of OPC scattering (μg/m³),mass concentration of particles derived from Lorenz-Mie calculation of OPC scattering (μg/m³)
DateTimeUTC,F1_M11,P_M11,Q1_M11,Q2_M11,T1_M11,T2_M11,T3_M11,T4_M11,T5_M11,U1_M11,ZSPAN_M11,X2_M11,X0_M11,X1_M11
2023-09-03 16:00:00,SystemResetWarning,0832.7,4.99,000.00,027.9,025.1,000.0,036.1,029.2,32.0,0000.0,0003.45,0006.58,0002.85
2023-09-03 16:01:00,SystemResetWarning,0832.7,5.01,000.00,027.8,024.6,000.0,036.0,029.1,32.2,0000.0,0003.44,0005.89,0002.84
2023-09-03 16:02:00,SystemResetWarning,0832.7,5.01,000.00,027.7,024.9,000.0,036.0,029.1,32.1,0000.0,0003.47,0006.10,0002.83
2023-09-03 16:03:00,SystemResetWarning,0832.7,5.00,000.00,027.7,025.2,000.0,036.1,029.2,33.4,0000.0,0003.50,0006.25,0002.83
2023-09-03 16:04:00,SystemResetWarning,0832.7,5.01,000.00,027.7,025.6,000.0,036.1,029.3,34.5,0000.0,0003.49,0006.25,0002.82
2023-09-03 16:05:00,SystemResetWarning,0832.7,5.00,000.00,027.8,025.9,000.0,036.1,029.4,34.2,0000.0,0003.48,0006.15,0002.83
2023-09-03 16:06:00,SystemResetWarning,0832.7,5.01,000.00,027.8,026.3,000.0,036.1,029.5,34.0,0000.0,0003.48,0006.01,0002.82
2023-09-03 16:07:00,SystemResetWarning,0832.8,5.00,000.00,027.9,026.6,000.0,036.2,029.6,33.7,0000.0,0003.50,0006.10,0002.82
2023-09-03 16:08:00,SystemResetWarning,0832.7,4.99,000.00,027.9,026.4,000.0,036.2,029.6,33.3,0000.0,0003.50,0006.18,0002.82
2023-09-03 16:09:00,SystemResetWarning,0832.7,4.99,000.00,027.9,025.2,000.0,036.1,029.1,33.9,0000.0,0003.47,0006.06,0002.81
2023-09-03 16:10:00,SystemResetWarning,0832.7,5.01,000.00,027.8,024.6,000.0,036.0,029.0,34.2,0000.0,0003.47,0007.36,0002.80
2023-09-03 16:11:00,SystemResetWarning,0832.7,5.02,000.00,027.7,024.8,000.0,036.0,029.1,33.8,0000.0,0003.48,0007.61,0002.79
2023-09-03 16:12:00,SystemResetWarning,0832.7,5.00,000.00,027.7,025.1,000.0,036.0,029.1,32.8,0000.0,0003.50,0007.90,0002.80
2023-09-03 16:13:00,SystemResetWarning,0832.7,5.00,000.00,027.7,025.5,000.0,036.1,029.3,33.8,0000.0,0003.48,0007.84,0002.81
2023-09-03 16:14:00,SystemResetWarning,0832.7,5.00,000.00,027.8,025.9,000.0,036.1,029.4,33.8,0000.0,0003.45,0007.91,0002.82
2023-09-03 16:15:00,SystemResetWarning,0832.7,5.00,000.00,027.8,026.2,000.0,036.1,029.5,33.2,0000.0,0003.43,0007.98,0002.82
2023-09-03 16:16:00,SystemResetWarning,0832.7,5.01,000.00,027.9,026.5,000.0,036.1,029.6,33.5,0000.0,0003.42,0007.96,0002.81
2023-09-03 16:17:00,SystemResetWarning,0832.7,5.00,000.00,027.9,026.4,000.0,036.1,029.6,33.7,0000.0,0003.39,0007.91,0002.79
2023-09-03 16:18:00,SystemResetWarning,0832.7,4.98,000.00,027.9,025.3,000.0,036.1,029.2,34.1,0000.0,0003.32,0007.80,0002.77
2023-09-03 16:19:00,SystemResetWarning,0832.7,5.01,000.00,027.8,024.6,000.0,036.0,029.0,34.0,0000.0,0003.32,0008.09,0002.76
2023-09-03 16:20:00,SystemResetWarning,0832.7,5.01,000.00,027.7,024.8,000.0,036.0,029.1,33.6,0000.0,0003.30,0007.99,0002.75
2023-09-03 16:21:00,SystemResetWarning,0832.7,5.01,000.00,027.7,025.1,000.0,036.0,029.1,34.3,0000.0,0003.31,0007.75,0002.75
2023-09-03 16:22:00,SystemResetWarning,0832.7,4.99,000.00,027.7,025.5,000.0,036.0,029.3,33.8,0000.0,0003.30,0007.60,0002.73
2023-09-03 16:23:00,SystemResetWarning,0832.7,5.00,000.00,027.8,025.9,000.0,036.1,029.4,34.2,0000.0,0003.26,0007.23,0002.71
2023-09-03 16:24:00,SystemResetWarning,0832.7,5.00,000.00,027.8,026.2,000.0,036.1,029.5,33.4,0000.0,0003.22,0007.06,0002.70
2023-09-03 16:25:00,SystemResetWarning,0832.7,5.00,000.00,027.9,026.5,000.0,036.1,029.6,33.3,0000.0,0003.20,0006.73,0002.70
2023-09-03 16:26:00,SystemResetWarning,0832.6,5.00,000.00,027.9,026.5,000.0,036.1,029.6,33.8,0000.0,0003.21,0007.39,0002.71
2023-09-03 16:27:00,SystemResetWarning,0832.6,4.99,000.00,027.9,025.4,000.0,036.1,029.2,33.5,0000.0,0003.20,0007.48,0002.71
2023-09-03 16:28:00,SystemResetWarning,0832.7,5.01,000.00,027.8,024.7,000.0,036.0,029.1,34.1,0000.0,0003.22,0007.59,0002.74
2023-09-03 16:29:00,SystemResetWarning,0832.6,5.00,000.00,027.7,024.8,000.0,036.0,029.1,34.9,0000.0,0003.22,0008.07,0002.75
2023-09-03 16:30:00,SystemResetWarning,0832.7,4.99,000.00,027.7,025.1,000.0,036.0,029.2,33.6,0000.0,0003.22,0007.71,0002.75
2023-09-03 16:31:00,SystemResetWarning,0832.6,5.00,000.00,027.7,025.5,000.0,036.0,029.3,32.5,0000.0,0003.22,0007.68,0002.76
2023-09-03 16:32:00,SystemResetWarning,0832.6,5.00,000.00,027.8,025.9,000.0,036.0,029.4,32.6,0000.0,0003.19,0007.41,0002.75
2023-09-03 16:33:00,SystemResetWarning,0832.7,5.01,000.00,027.8,026.3,000.0,036.1,029.5,32.9,0000.0,0003.19,0006.75,0002.75
2023-09-03 16:34:00,SystemResetWarning,0832.6,5.01,000.00,027.9,026.3,000.0,036.1,029.5,33.0,0000.0,0003.22,0007.78,0002.77
2023-09-03 16:35:00,SystemResetWarning,0832.6,4.98,000.00,027.8,025.2,000.0,036.0,029.1,33.1,0000.0,0003.27,0007.98,0002.80
2023-09-03 16:36:00,SystemResetWarning,0832.5,5.00,000.00,027.7,024.4,000.0,036.0,028.9,33.6,0000.0,0003.27,0008.03,0002.79
2023-09-03 16:37:00,SystemResetWarning,0832.5,5.02,000.00,027.6,024.6,000.0,035.9,029.0,33.7,0000.0,0003.28,0007.75,0002.77
2023-09-03 16:38:00,SystemResetWarning,0832.5,5.00,000.00,027.6,024.9,000.0,035.9,029.0,34.4,0000.0,0003.31,0007.61,0002.77
2023-09-03 16:39:00,SystemResetWarning,0832.5,4.99,000.00,027.6,025.3,000.0,036.0,029.2,33.1,0000.0,0003.33,0007.61,0002.77
2023-09-03 16:40:00,SystemResetWarning,0832.6,5.00,000.00,027.7,025.8,000.0,036.0,029.3,32.5,0000.0,0003.41,0007.27,0002.78
2023-09-03 16:41:00,SystemResetWarning,0832.5,5.00,000.00,027.7,026.1,000.0,036.0,029.4,33.1,0000.0,0003.45,0007.32,0002.80
2023-09-03 16:42:00,SystemResetWarning,0832.5,5.00,000.00,027.8,026.4,000.0,036.0,029.5,33.3,0000.0,0003.49,0007.40,0002.82
2023-09-03 16:43:00,SystemResetWarning,0832.5,4.99,000.00,027.8,026.4,000.0,036.0,029.5,33.2,0000.0,0003.52,0007.48,0002.84
2023-09-03 16:44:00,SystemResetWarning,0832.5,4.99,000.00,027.8,025.4,000.0,036.0,029.1,33.9,0000.0,0003.51,0007.65,0002.86
2023-09-03 16:45:00,SystemResetWarning,0832.4,5.00,000.00,027.7,024.5,000.0,035.9,028.9,32.9,0000.0,0003.52,0006.98,0002.87
2023-09-03 16:46:00,SystemResetWarning,0832.4,5.01,000.00,027.6,024.6,000.0,035.9,028.9,32.9,0000.0,0003.51,0006.82,0002.87
2023-09-03 16:47:00,SystemResetWarning,0832.4,5.01,000.00,027.6,024.9,000.0,035.9,029.0,31.5,0000.0,0003.53,0006.82,0002.90
2023-09-03 16:48:00,SystemResetWarning,0832.4,4.99,000.00,027.6,025.3,000.0,035.9,029.1,31.3,0000.0,0003.57,0007.02,0002.94
2023-09-03 16:49:00,SystemResetWarning,0832.4,5.00,000.00,027.6,025.7,000.0,036.0,029.3,31.8,0000.0,0003.56,0006.95,0002.95
2023-09-03 16:50:00,SystemResetWarning,0832.4,5.00,000.00,027.7,026.1,000.0,036.0,029.4,31.6,0000.0,0003.55,0007.12,0002.97
2023-09-03 16:51:00,SystemResetWarning,0832.3,5.01,000.00,027.7,026.4,000.0,036.0,029.5,30.4,0000.0,0003.50,0007.52,0002.99
2023-09-03 16:52:00,SystemResetWarning,0832.3,4.99,000.00,027.8,026.4,000.0,036.0,029.5,31.3,0000.0,0003.49,0007.78,0003.03
2023-09-03 16:53:00,SystemResetWarning,0832.3,4.98,000.00,027.8,025.3,000.0,036.0,029.1,30.1,0000.0,0003.50,0008.14,0003.05
2023-09-03 16:54:00,SystemResetWarning,0832.3,5.02,000.00,027.7,024.4,000.0,035.9,028.9,30.1,0000.0,0003.52,0008.73,0003.06
2023-09-03 16:55:00,SystemResetWarning,0832.3,5.00,000.00,027.6,024.5,000.0,035.9,028.9,29.5,0000.0,0003.56,0008.79,0003.07
2023-09-03 16:56:00,SystemResetWarning,0832.2,5.00,000.00,027.5,024.8,000.0,035.9,028.9,29.1,0000.0,0003.58,0008.48,0003.09
2023-09-03 16:57:00,SystemResetWarning,0832.2,5.00,000.00,027.6,025.2,000.0,035.9,029.1,29.4,0000.0,0003.58,0008.49,0003.10
2023-09-03 16:58:00,SystemResetWarning,0832.2,5.01,000.00,027.6,025.6,000.0,035.9,029.2,29.8,0000.0,0003.58,0008.46,0003.10
2023-09-03 16:59:00,SystemResetWarning,0832.2,5.00,000.00,027.7,026.0,000.0,035.9,029.4,30.0,0000.0,0003.59,0008.39,0003.11
